Regional Weather Roundup
Issued by NWS

Home | Current Version | Previous Version | Text Only | Print | Product List | Glossary Off
Versions: 1 2 3 4 5 6 7 8 9 10 11 12 13 14 15 16 17 18 19 20 21 22 23 24 25 26 27 28 29 30 31 32 33 34 35 36 37 38 39 40 41 42 43 44 45 46 47 48 49 50

000
ASUS43 KLOT 240508
RWRIL

ILLINOIS REGIONAL WEATHER ROUNDUP
NATIONAL WEATHER SERVICE CHICAGO/ROMEOVILLE IL
1200 AM CDT TUE MAY 24 2016

NOTE: "FAIR" INDICATES FEW OR NO CLOUDS BELOW 12,000 FEET WITH NO
SIGNIFICANT WEATHER AND/OR OBSTRUCTIONS TO VISIBILITY.

* THESE STATIONS ARE NOT UNDER NWS QUALITY CONTROL. THEY ALSO MAY NOT
  REPORT WEATHER SUCH AS PRECIPITATION OR FOG.

ILZ001-002-007-009-015-016-024-240600-
NORTHWEST ILLINOIS

CITY           SKY/WX    TMP DP  RH WIND       PRES   REMARKS
MOLINE         PTCLDY    67  48  50 S6        29.90R
STERLING*      PTCLDY    66  49  54 CALM      29.91S
SAVANNA*       PTCLDY    63  51  65 CALM      29.91R
$$

ILZ003-004-008-010-011-017-018-240600-
NORTH CENTRAL ILLINOIS

CITY           SKY/WX    TMP DP  RH WIND       PRES   REMARKS
ROCKFORD       CLOUDY    67  48  50 CALM      29.93S
FREEPORT*      MOCLDY    62  47  58 SW7       29.93R
ROCHELLE*      CLOUDY    63  47  56 S9        29.93R
DE KALB*       CLEAR     62  48  60 S8        29.94S
$$

ILZ005-006-012>014-019>023-240600-
NORTHEAST ILLINOIS

CITY           SKY/WX    TMP DP  RH WIND       PRES   REMARKS
CHICAGO-OHARE  CLOUDY    62  43  49 S6        29.93R
CHICAGO-MIDWAY MOCLDY    71  38  29 S6        29.94R
AURORA         CLOUDY    65  48  54 S6        29.94R
LANSING*       PTCLDY    63  40  43 SE3       29.96R
JOLIET*        PTCLDY    67  46  46 S5        29.95R
WAUKEGAN       CLOUDY    61  44  53 SE5       29.92S
DUPAGE AIRPORT CLEAR     63  42  46 S7        29.93R
KANKAKEE*      MOCLDY   N/A N/A N/A S7        29.96S
WHEELING       CLOUDY    61  43  51 CALM      29.94R
MORRIS*        CLOUDY    67  46  47 S6        29.93R
ROMEOVILLE*    CLOUDY    62  41  45 S7        29.95R
NORTHERLY ISL    N/A     60  49  66 NE2         N/A
NORTHERLY ISL    N/A     60  49  66 NE2         N/A
$$

LMZ740>746-240600-
SOUTHERN LAKE MICHIGAN

STATION/POSITION SKY/WX   TEMP    WIND        PRES    VSBY  WAVE
                          AIR SEA DIR/SP/G                  HT/PER
                          (F)     (DEG/KT/KT) (MB)    (MI)  (FT/S)
SOUTHERN BUOY              56 49  140/ 10/ 12 1013.6R         0
WILMETTE HARBOR            57 55  170/  8/  8   N/A           1/ 2
HARRISON CRIB              64     160/ 10/ 12   N/A
BURNHAM HARBOR             64     180/  7       N/A
CALUMET HARBOR             71     170/  7/  9 1013.2R
BURNS HARBOR               70     160/  9/ 19 1014.9R
MICHIGAN CITY              69     130/ 11/ 15   N/A
MICHIGAN CITY 6N           63 57  170/  8/ 10   N/A           1
ST. JOSEPH                 63 58  140/  8/ 10   N/A           1
$$

ILZ025>027-034>036-040-047-049-050-058-095>099-240600-
WEST-CENTRAL ILLINOIS

CITY           SKY/WX    TMP DP  RH WIND       PRES   REMARKS
QUINCY         PTCLDY    68  51  54 S6        29.93R
GALESBURG*     CLOUDY    63  51  63 S6        29.93R
MACOMB*        MOCLDY    64  51  61 S5        29.95S
JACKSONVILLE*  PTCLDY    68  52  57 S5        29.94S
PITTSFIELD*    CLEAR     65  54  67 S3        29.95S
$$

ILZ028>032-037-038-041>044-048-051>054-059>061-240600-
CENTRAL ILLINOIS

CITY           SKY/WX    TMP DP  RH WIND       PRES   REMARKS
PONTIAC        PTCLDY    69  47  44 S10       29.96R
BLOOMINGTON    MOCLDY    65  50  58 S8        29.97R
DECATUR        CLOUDY    69  49  48 S9        29.96S
PEORIA         CLOUDY    67  49  52 S5        29.93S
LACON*         PTCLDY    67  47  50 SE6       29.92S
LINCOLN*       CLOUDY    67  53  61 CALM      29.95R
SPRINGFIELD    PTCLDY    71  53  52 SW7       29.95R
TAYLORVILLE    CLOUDY    64  55  71 SE7       29.96R
$$

ILZ033-039-045-046-055>057-062-063-240600-
EAST-CENTRAL ILLINOIS

CITY           SKY/WX    TMP DP  RH WIND       PRES   REMARKS
CHAMPAIGN      CLOUDY    66  45  46 SE9       29.97S
RANTOUL*       CLEAR     66  46  49 SE5       29.97S
MATTOON        CLOUDY    66  47  50 S7        29.97S
PARIS*         CLEAR     61  47  60 SE3       30.00R
$$

ILZ079-100>102-240600-
SOUTHWEST ILLINOIS

CITY           SKY/WX    TMP DP  RH WIND       PRES   REMARKS
ALTON          PTCLDY    64  54  68 SE3       29.95S
BELLEVILLE     PTCLDY    65  59  79 CALM      29.94S
CAHOKIA*       PTCLDY    66  55  67 S3        29.94S
SPARTA*        CLOUDY    65  58  78 S3        29.97S
$$

ILZ064>066-069>071-074>076-080>082-084>086-088>090-092>094-240600-
SOUTH-CENTRAL ILLINOIS

CITY           SKY/WX    TMP DP  RH WIND       PRES   REMARKS
CARBONDALE     PTCLDY    61  58  90 E6        29.97S
CAIRO*         PTCLDY    61  59  93 W3        29.97R
EFFINGHAM*     CLOUDY    64  53  68 E6        29.99R
MARION         PTCLDY    66  59  77 CALM      29.98S
MT. VERNON     MOCLDY    59  54  82 CALM      29.98F
CENTRALIA*     CLOUDY    66  59  79 CALM      29.96F
SALEM*         CLOUDY    70  54  56 S6        29.97S
METROPOLIS*    CLOUDY    63  62  95 CALM      29.98S
$$

ILZ067-068-072-073-078-083-087-091-240600-
SOUTHEAST ILLINOIS

CITY           SKY/WX    TMP DP  RH WIND       PRES   REMARKS
LAWRENCEVILLE  CLOUDY    63  53  70 SE5       29.99S
FLORA*         CLOUDY    64  55  71 S5        29.98S
FAIRFIELD*     PTCLDY    68  50  52 CALM      29.97S
HARRISBURG*    CLOUDY    65  59  81 CALM      29.99R
ROBINSON*      CLOUDY    56  53  89 CALM      30.00S
CARMI*         PTCLDY    64  56  73 CALM      29.98S
$$

ABBREVIATIONS USED IN REMARKS
   TC - TEMPERATURE IN CELSIUS
  WCI - WIND CHILL INDEX
   HX - HEAT INDEX
  VSB - VISIBILITY
$$




USA.gov is the U.S. government's official web portal to all federal, state and local government web resources and services.